Regional Weather Roundup
Issued by NWS

Home | Current Version | Previous Version | Text Only | Print | Product List | Glossary On
Versions: 1 2 3 4 5 6 7 8 9 10 11 12 13 14 15 16 17 18 19 20 21 22 23 24 25 26 27 28 29 30 31 32 33 34 35 36 37 38 39 40 41 42 43 44 45 46 47 48 49 50
000
ASPQ40 PGUM 221212
RWRPQ
WEATHER ROUNDUP FOR THE MARIANAS AND MICRONESIA
NATIONAL WEATHER SERVICE TIYAN GU
1000 PM CHST FRI AUG 22 2014

GUZ001>004-221300-
MARIANA ISLANDS-

CITY           SKY/WX    TMP DP  RH WIND       PRES   REMARKS
GUAM AIRPORT   PTCLDY    81  75  83 E3        29.89R
ANDERSEN AFB   PTCLDY    79  75  89 E6        29.89R
ROTA AIRPORT   NOT AVBL
TINIAN AP      NOT AVBL
SAIPAN AP      PTCLDY    81  75  83 E5        29.88R

$$

PMZ161-221300-
REPUBLIC OF PALAU-

CITY           SKY/WX    TMP DP  RH WIND       PRES   REMARKS
KOROR AP       MOCLDY    82  81  94 W5        29.87S HX  95
KOROR WSO      MOCLDY    81  75  83 CALM      29.87R

$$

PMZ171>174-221300-
FEDERATED STATES OF MICRONESIA-

CITY           SKY/WX    TMP DP  RH WIND       PRES   REMARKS
YAP AIRPORT    LGT RAIN  77  75  94 CALM      29.87R
CHUUK AP       CLOUDY    79  77  94 VRB3      29.86R
POHNPEI AP     NOT AVBL
POHNPEI WSO    PTCLDY    77  75  94 SE3       29.92R
KOSRAE AP      NOT AVBL

$$

PMZ181-221300-
REPUBLIC OF THE MARSHALL ISLANDS-

CITY           SKY/WX    TMP DP  RH WIND       PRES   REMARKS
KWAJALEIN AP   CLEAR     82  73  74 NE12      29.88F
MAJURO AP      NOT AVBL
MAJURO WSO     PTCLDY    84  75  74 NE12      29.85F HX  92

$$




USA.gov is the U.S. government's official web portal to all federal, state and local government web resources and services.